Regional Weather Roundup
Issued by NWS

Home | Current Version | Previous Version | Text Only | Print | Product List | Glossary Off
Versions: 1 2 3 4 5 6 7 8 9 10 11 12 13 14 15 16 17 18 19 20 21 22 23 24 25 26 27 28 29 30 31 32 33 34 35 36 37 38 39 40 41 42 43 44 45 46 47 48 49 50

000
ASUS43 KMPX 261310
RWRMN
WEATHER ROUNDUP FOR MINNESOTA
NATIONAL WEATHER SERVICE TWIN CITIES/CHANHASSEN MN
800 AM CDT SUN APR 26 2015


NOTE: "FAIR" INDICATES FEW OR NO CLOUDS BELOW 12,000 FEET WITH NO
SIGNIFICANT WEATHER AND/OR OBSTRUCTIONS TO VISIBILITY. N/A MEANS
CURRENT SKY AND/OR WEATHER CONDITIONS ARE NOT AVAILABLE.

MNZ060>063-068>070-261400-
   Twin Cities Metro

CITY           SKY/WX    TMP DP  RH WIND       PRES   REMARKS
TWIN CITIES    SUNNY     41  24  51 NE6       30.09R
ST PAUL        SUNNY     41  24  51 E5        30.10R
CRYSTAL        SUNNY     39  25  57 NE5       30.09R
BLAINE         SUNNY     37  27  65 NE7       30.09R
LAKEVILLE      SUNNY     37  27  65 E7        30.08R
EDEN PRAIRIE   SUNNY     40  24  53 NE7       30.07R
SOUTH ST PAUL  SUNNY     40  24  51 CALM      30.09R
LAKE ELMO      FAIR      37  27  65 NE6       30.10R
$$
MNZ001>005-007-008-013>017-022>024-027-028-261400-
   Northwest Minnesota

CITY           SKY/WX    TMP DP  RH WIND       PRES   REMARKS
BEMIDJI        SUNNY     37  28  69 CALM      30.14R
HALLOCK        SUNNY     45  30  57 S12       30.10R
ROSEAU         SUNNY     43  30  61 S5        30.13R
WARROAD        SUNNY     37  30  75 CALM      30.14R
THIEF RVR FALL SUNNY     39  28  65 SE5       30.13R
CROOKSTON      SUNNY     41  25  52 S9        30.12R
FOSSTON        SUNNY     43  21  42 SE7       30.12S
DETROIT LAKES  SUNNY     41  14  33 SE9       30.12S
MOORHEAD       SUNNY     39  25  56 SE6       30.11S
PARK RAPIDS    SUNNY     38  19  46 CALM      30.13R
MAHNOMEN       FAIR      41  16  36 SE7       30.11S
$$
MNZ006-009>011-018-025>026-261400-
   North Central Minnesota

CITY           SKY/WX    TMP DP  RH WIND       PRES   REMARKS
BAUDETTE       SUNNY     38  25  59 SE3       30.15R
FLAG ISLAND    SUNNY     43  25  49 SE5       30.14R
INTL FALLS     SUNNY     38  29  70 CALM      30.16R
WASKISH        SUNNY     36  27  69 CALM      30.15R
BIG FORK       SUNNY     36  21  55 CALM      30.15R
LONGVILLE      SUNNY     36  21  55 CALM      30.14R
GRAND RAPIDS   SUNNY     36  18  48 CALM      30.15R
CRANE LAKE     SUNNY     28  27  93 CALM      30.17R
ORR            SUNNY     32  19  59 CALM      30.13R
COOK           SUNNY     34  23  64 CALM      30.15R
WALKER         FAIR      38  26  63 CALM      30.14R
$$
MNZ012-019>021-037-261400-
   Northeast Minnesota

CITY           SKY/WX    TMP DP  RH WIND       PRES   REMARKS
DULUTH         SUNNY     39  17  41 E7        30.12R
ELY            SUNNY     30  25  80 CALM      30.14R
HIBBING        SUNNY     37  21  52 CALM      30.13R
EVELETH        SUNNY     36  21  55 CALM      30.14R
DULUTH HARBOR  SUNNY     36  30  80 CALM      30.16R
TWO HARBORS    SUNNY     43  21  42 CALM      30.12R
SILVER BAY     SUNNY     37  27  65 CALM      30.13R
GRAND MARAIS     N/A     44  21  40 VRB6      30.15R
G MARAIS ARPRT SUNNY     37  18  44 CALM      30.13R
$$
MNZ029>031-032-039>041-046>048-054>057-064-261400-
   West Central Minnesota

CITY           SKY/WX    TMP DP  RH WIND       PRES   REMARKS
FERGUS FALLS   SUNNY     43   5  21 SE5       30.13S
WHEATON        SUNNY     36  30  80 E3        30.12S
MORRIS         SUNNY     41  23  48 E3        30.10R
ALEXANDRIA     SUNNY     39  18  42 E8        30.12R
ELBOW LAKE     FAIR      39  21  49 E9        30.11R
WADENA         SUNNY     36  16  44 NE3       30.12R
GLENWOOD       SUNNY     37  25  60 NE5       30.11R
APPLETON       SUNNY     39  27  60 NE3       30.10R
BENSON         SUNNY     39  23  52 SE8       30.10R
ORTONVILLE     SUNNY     39  30  70 CALM      30.09S
MADISON        SUNNY     39  30  70 CALM      30.10R
WILLMAR        FAIR      39  27  60 NE8       30.10S
$$
MNZ033>034-036-042>043-049>051-058-059-261400-
   Central Minnesota

CITY           SKY/WX    TMP DP  RH WIND       PRES   REMARKS
ST CLOUD       SUNNY     37  24  59 NE7       30.11R
SAUK CENTRE    FAIR      37  22  55 NE5       30.11R
PAYNESVILLE    SUNNY     33  23  67 N7        30.11R WCI  27
AITKIN         SUNNY     36  19  51 CALM      30.12R
PINE RIVER     SUNNY     36  21  55 CALM      30.17R
BRAINERD       SUNNY     36  20  52 NE5       30.13R
STAPLES        SUNNY     36  18  48 CALM      30.13R
LONG PRAIRIE   FAIR      36  21  55 NE5       30.12R
LITTLE FALLS   SUNNY     36  21  55 CALM      30.12R
LITCHFIELD     SUNNY     37  27  65 N3        30.10R
BUFFALO        SUNNY     37  26  64 N5        30.11R
MAPLE LAKE     SUNNY     37  28  69 NE5       30.10R
$$
MNZ037-044-045-052-053-261400-
   East Central Minnesota

CITY           SKY/WX    TMP DP  RH WIND       PRES   REMARKS
PRINCETON      SUNNY     37  25  60 N6        30.12R
MORA           SUNNY     36  23  60 NE6       30.13R
CAMBRIDGE      SUNNY     37  25  60 NE6       30.09R
RUSH CITY      SUNNY     34  24  67 NE6       30.11R WCI  29
MOOSE LAKE     SUNNY     34  25  69 CALM      30.12R
HINCKLEY       FAIR      34  25  69 NE3       30.12R
CLOQUET        SUNNY     36  18  48 E6        30.12R
MCGREGOR       SUNNY     34  21  60 CALM      30.14R
$$
MNZ071>073-080-081-089-090-097-098-261400-
   Southwest Minnesota

CITY           SKY/WX    TMP DP  RH WIND       PRES   REMARKS
MONTEVIDEO     SUNNY     39  28  65 E6        30.11R
GRANITE FALLS  SUNNY     37  25  60 NE6       30.10R
CANBY          SUNNY     36  34  93 CALM      30.10R
MARSHALL       SUNNY     37  28  70 N3        30.08R
REDWOOD FALLS  SUNNY     38  24  57 NE7       30.08R
OLIVIA         SUNNY     36  23  60 NE7       30.07S
PIPESTONE      SUNNY     37  36  93 NE2       30.05R
WINDOM         SUNNY     39  30  70 CALM      30.05R
WORTHINGTON    SUNNY     39  34  81 N6        30.06R
JACKSON        SUNNY     41  32  70 N7        30.05R
TRACY          SUNNY     39  30  70 N3        30.08R
SLAYTON        SUNNY     37  36  97 CALM      30.06S FOG
$$
MNZ065>067-074>077-082>085-091>093-261400-
   South Central Minnesota

CITY           SKY/WX    TMP DP  RH WIND       PRES   REMARKS
MANKATO        SUNNY     41  25  52 E7        30.06R
NEW ULM        SUNNY     37  23  56 NE6       30.07R
ST JAMES       SUNNY     39  30  70 N5        30.07R
FAIRMONT       SUNNY     39  30  70 N6        30.04R
GLENCOE        SUNNY     38  28  65 NE7       30.08R
FARIBAULT      SUNNY     39  28  65 N3        30.06R
OWATONNA       SUNNY     39  30  70 CALM      30.05R
WASECA         SUNNY     37  30  75 N5        30.06R
ALBERT LEA     SUNNY     43  23  45 SE9       30.04R
$$
MNZ078>079-086>088-094>096-261400-
   Southeast Minnesota

CITY           SKY/WX    TMP DP  RH WIND       PRES   REMARKS
ROCHESTER      SUNNY     41  24  51 E3        30.07R
RED WING       SUNNY     43  25  49 E3        30.08R
STANTON        SUNNY     39  29  69 NE6       30.07R
DODGE CENTER   SUNNY     39  32  75 SE5       30.05R
WINONA         SUNNY     36  30  80 CALM      30.09R
AUSTIN         SUNNY     39  28  65 E6        30.05R
PRESTON        SUNNY     39  23  52 CALM      30.06R
$$
ABBREVIATIONS USED IN REMARKS
   TC - TEMPERATURES IN CELSIUS
  WCI - WIND CHILL INDEX
   HX - HEAT INDEX
  VSB - VISIBILITY
$$


USA.gov is the U.S. government's official web portal to all federal, state and local government web resources and services.